Find Starlink 34663

NORAD ID: 64807 Int'l Des: 2025-150 Owner: SPXS Country: US Constellation: starlink operational
LEOCIRCULAR

当前视图

正在加载3D地球...

关于 Starlink 34663

正在加载描述...

即将过境

Passes for default location (London). Set your location on the main map for personalized predictions.

高度历史

Loading altitude history...

两行轨道根数

1 64807U 25150T 26149.52087757 .00003584 00000-0 30795-3 0 9998
2 64807 70.0008 290.6867 0003056 260.2002 99.8813 14.98334265 48629
Epoch: May 29, 2026 • Age: 13 hours

当前状态

高度 582.7 km
速度 7.57 km/s
星下点 -32.12°S, 11.16°E
发射日期 Jul 16, 2025
运行时间 0.8 years
类型 internet

技术详情

分类 Payload
质量 575.00 kg
干质量 530.00 kg
总质量 575.00 kg
长度 0.30 m
直径 4.10 m
跨度 29.00 m
形状 Box + pan
制造商 SPXS
平台类型 Starlink V2MO
阶段状态 In Orbit
所有者/国家 SPXS/US

Most Searched